{"data":{"norad_id":63807,"epoch":"2026-05-25T04:02:27.852288Z","epoch_age_seconds":54286,"freshness":"FRESH","line1":"1 63807U 25092D   26145.16837792  .00022053  00000+0  80748-3 0  9994","line2":"2 63807  42.9994 100.4088 0002110 276.5444  83.5167 15.27620847 60312","mean_motion":15.27620847,"eccentricity":0.000211,"inclination_deg":42.9994,"raan_deg":100.4088,"arg_perigee_deg":276.5444,"mean_anomaly_deg":83.5167,"bstar":0.00080748,"rev_number":6031,"period_min":94.264228118379,"perigee_km":481.47910369311,"apogee_km":484.37447261171,"semimajor_km":6861.0637881524,"source":"CELESTRAK","updated_at":"2026-05-25T13:38:20.139654Z"}}